Regional Weather Roundup
Issued by NWS Green Bay, WI

Home | Current Version | Previous Version | Graphics & Text | Print | Product List | Glossary Off
Versions: 1 2 3 4 5 6 7 8 9 10 11 12 13 14 15 16 17 18 19 20 21 22 23 24 25 26 27 28 29 30 31 32 33 34 35 36 37 38 39 40 41 42 43 44 45 46 47 48 49 50

000
ASUS43 KGRB 281011
RWRGRB

NORTH-CENTRAL AND NORTHEAST WISCONSIN REGIONAL WEATHER ROUNDUP
NATIONAL WEATHER SERVICE GREEN BAY WI
500 AM CDT WED SEP 28 2016

WIZ005-009-010>012-018-019-281100-
NORTH CENTRAL WISCONSIN

CITY           SKY/WX    TMP DP  RH WIND       PRES   REMARKS
IRONWOOD       LGT RAIN  53  52  96 N14G24    29.93R FOG
MANITOWISH WTR CLOUDY    50  50 100 NE8G16    29.89R
ARBOR VITAE    CLOUDY    52  51  95 N8        29.87R
EAGLE RIVER    CLOUDY    50  50 100 N5        29.86R
LAND O LAKES   CLOUDY    51  51  97 N7        29.88R FOG
RHINELANDER    MOCLDY    50  50 100 N5        29.86R
PHILLIPS       MOCLDY    50  50 100 N3        29.87R
ANTIGO         CLOUDY    49  48  99 CALM      29.84R
TOMAHAWK       MOCLDY    47  46  96 NW3       29.87R
MERRILL        CLOUDY    49  49 100 CALM      29.86R
$$

WIZ013-073-281100-
NORTHEAST WISCONSIN

CITY           SKY/WX    TMP DP  RH WIND       PRES   REMARKS
IRON MOUNTAIN  CLOUDY    49  46  90 VRB3      29.84R
MARINETTE      CLEAR     46  45  96 N5        29.83R
OCONTO         MOCLDY    44  44  99 CALM      29.82R
$$

WIZ017-030-035>037-045-281100-
CENTRAL WISCONSIN

CITY           SKY/WX    TMP DP  RH WIND       PRES   REMARKS
MEDFORD        MOCLDY   N/A N/A N/A N7        29.86R
WAUSAU         CLOUDY    50  48  93 N7        29.83R
MOSINEE        CLOUDY    48  48 100 N7        29.86R
MARSHFIELD     CLOUDY    51  47  86 N9        29.85R
WISC RAPIDS    CLOUDY    50  49  96 NW3       29.86R
STEVENS POINT  CLOUDY    48  48 100 NW6       29.85R
WAUPACA        CLOUDY    52  51  95 NW3       29.83R
SHAWANO        CLOUDY    52  49  90 CALM      29.83R
CLINTONVILLE   NOT AVBL
WAUTOMA        CLOUDY    49  48  97 NW5       29.84
$$

WIZ038-039-048-051-281100-
FOX VALLEY

CITY           SKY/WX    TMP DP  RH WIND       PRES   REMARKS
NWS GREEN BAY  CLOUDY    50  50 100 NW5       29.81R
APPLETON       CLOUDY    48  48 100 NW5       29.81R
OSHKOSH        CLOUDY    50  48  93 NW7       29.81R
FOND DU LAC    CLOUDY    50  48  93 NW9       29.81R
$$

WIZ022-050-052-281100-
EAST CENTRAL WISCONSIN

CITY           SKY/WX    TMP DP  RH WIND       PRES   REMARKS
EPHRAIM        CLOUDY    52  51  98 CALM      29.80R
WASHINGTON ISL CLOUDY    52  51  97 CALM      29.81R
STURGEON BAY   PTCLDY    50  48  93 N6        29.81R
MANITOWOC      PTCLDY    48  46  93 NW5       29.81R
SHEBOYGAN      CLOUDY    50  47  89 NW5       29.80R
$$

LMZ563-521-522-541>543-281100-
LAKESHORE

STATION/POSITION TIME  TEMP    WIND        PRES    VSBY  WAVE
                       AIR SEA DIR/SP/G                  HT/PER
                 (UTC) (F)     (DEG/KT/KT) (MB)    (MI)  (FT/S)
SHEBOYGAN LKSHOR 1000   50     330/  6/  7 1009.1R
KEWAUNEE LKSHORE 0900   50     310/  3/  4 1008.2R
NORTHPORT PIER   0900   55      30/  6/  9 1009.1R
N MID LAKE BUOY  0950   57 66  140/ 12/ 16 1009.1R         2/ 6
SISTER BAY LKSHO 0908   53      CALM  /  3   N/A
CHAMBERS ISLAND  0900   54     340/  8/ 10 1008.8R
MENOMINEE LKSHOR 0900   51     330/  6/  8 1008.3R
$$



USA.gov is the U.S. government's official web portal to all federal, state and local government web resources and services.